Location: *
(40.4000°N, 15.1200°E)
Time: 22:07:07
(UTC+00:00)

USA 234 - Pass Details

Date: 09 April 2020
Orbit: 1102 x 1106 km, 123.0° (Epoch: 14 May)

Event Time Altitude Azimuth Distance (km) Brightness Sun altitude
Rises 18:09:08 0° 62° (ENE) 3,923 5.7 -7.6°
Reaches altitude 10° 18:12:38 10° 81° (E) 2,961 5.0 -8.2°
Maximum altitude 18:16:45 17° 121° (ESE) 2,443 4.5 -8.9°
Drops below altitude 10° 18:20:52 10° 161° (SSE) 2,953 5.2 -9.7°
Sets 18:24:20 0° 180° (S) 3,907 5.9 -10.3°
